Location: Unspecified
(0.0000°N, 0.0000°E)
Time: 04:40:30
(UTC+00:00)

RS-6 - Pass Details

Date: 05 October 2022
Orbit: 1636 x 1664 km, 83.0° (Epoch: 27 November)

Event Time Altitude Azimuth Distance (km) Brightness Sun altitude
Rises 03:10:43 0° 166° (SSE) 4,894 ? -39.3°
Reaches altitude 10° 03:14:00 10° 159° (SSE) 3,901 ? -38.5°
Maximum altitude 03:22:41 40° 92° (E) 2,263 ? -36.3°
Drops below altitude 10° 03:31:14 10° 27° (NNE) 3,872 ? -34.2°
Sets 03:34:27 0° 20° (NNE) 4,854 ? -33.4°
